Back to catalog

CZ-4 DEB

AliveSSO
NORAD 20892·DEBRIS·🇨🇳 China

Launched Sep 3, 1990 from Taiyuan Satellite Launch Center

Loading…

Next Passes (next 24 hours)

TLE

FreshSource: Space-Track

Epoch: Sep 13, 2026, 11:26 UTC

1 20892U 90081BC  26256.47655715  .00000551  00000-0  48587-3 0  9996
2 20892  98.8995  87.9455 0160162  94.1822 296.9879 13.83434131802855

Track CZ-4 DEB in real time with AllMySat

Download on the App Store